Startpagina
METAR-TAF:

METAR-TAF

Vliegvelden :

Douglas, Wyoming, Verenigde Staten

breedte: 42-47-39N, lengte: 105-22-55W, hoogte: 1502 m

Actueel weer

Dit bericht is 1 uur en het 4 minuten geleden gemaakt, om 02:53 UTC
Weinig wind
Temperatuur 4°C
Vochtigheid 70%
Druk 1028 hPa
Zicht: 16.1 km
Onbewolkt

METAR: KDGW 200253Z AUTO 00000KT 10SM CLR 04/M01 A3036 RMK AO2 SLP282 T00391011 53012

Tijdstip: 21:57 (03:57 UTC)


TAF: ontbreekt

Waarnemingen en weersverwachtingen van meer dan 4000 vliegvelden (METAR en TAF).

De beschikbare stations zijn de gele en rode punten op de kaart.

Ga met uw muis naar het station om de naam te zien.

Klik dan om waarnemingen en weersverwachtingen te zien.

kaart wijzigen: klik op de groene knoppen met een zwart kruis om in te zoomen, op de groene knop met een streepje om uit te zoomen of op de groene pijlen voor aangrenzende kaarten.


METAR-TAF: